Torna al catalogo

STARLINK-36410

AttivoComunicazioniVLEO
NORAD 67337·PAYLOAD·🇺🇸 United States

Lanciato Jan 9, 2026 da Cape Canaveral Space Force Station

Loading…

Prossimi Passaggi (prossime 24 ore)

TLE

AggiornatoSource: CelesTrak SupGP

Epoca: Sep 14, 2026, 20:53 UTC

1 67337C 26003D   26257.87062500  .00041079  00000+0  14881-2 0  2578
2 67337  43.0017 239.0660 0001713 265.9749  41.2382 15.27552330    17

Traccia STARLINK-36410 in tempo reale con AllMySat

Download on the App Store